User: anonymous   Login
Location: Cypress Hills Dark-Sky Preserve - CHICO
(49.6176°N, 110.2634°W)
Time: 01:54:39
(UTC-07:00)
Language:

SPOT 5 - Orbit

View from above orbital plane
View from above orbital plane
View from above satellite
View from above satellite

Ground track
Ground track

The orbit data is extracted from the following two-line orbital elements,

1 27421U 02021A   17057.87634331 -.00000020  00000-0  77543-5 0  9990
2 27421  98.4202 120.9786 0134468 306.5904  52.2966 14.51842077769662
Epoch (UTC): 26 February 2017 21:01:56
Eccentricity: 0.0134468
inclination: 98.4202°
perigee height: 624 km
apogee height: 815 km
right ascension of ascending node: 120.9786°
argument of perigee: 306.5904°
revolutions per day: 14.51842077
mean anomaly at epoch: 52.2966°
orbit number at epoch: 76966

The dashed part of the orbit path shows where the satellite is in the earth's shadow,  

DLR